2017-045B

Last updated on Tue Aug 15 2017 00:15:02 GMT+0000 (Coordinated Universal Time)

1 42905U 17045B 17226.74906679 -.00003584 11329-4 00000+0 0 9993 2 42905 51.6531 106.4982 0114717 49.1291 312.0268 15.97256864 16
UTC large
Height (km)
Speed (km/s)
/
Latitude / Longitude
Inclination (degrees)
Orbital Period (minutes)
Azimuth
Elevation
Range (km)
Doppler Factor

Next 0 passes for location: London (51.5072 / 0.1276)

Sorry there are no passes over London.